Time,TemperatureF,DewpointF,PressureIn,WindDirection,WindDirectionDegrees,WindSpeedMPH,WindSpeedGustMPH,Humidity,HourlyPrecipIn,Conditions,Clouds,dailyrainin,SoftwareType,DateUTC
2013-08-13 00:01:00,69.3,56.6,29.86,NNW,333,0.0,0.0,64,0.00,,,0.00,WeatherCatV1.21B27,2013-08-13 07:01:00,
2013-08-13 00:06:00,69.2,56.5,29.86,NNW,331,0.0,0.0,64,0.00,,,0.00,WeatherCatV1.21B27,2013-08-13 07:06:00,
2013-08-13 00:11:00,69.1,56.8,29.86,NNW,332,0.0,1.0,65,0.00,,,0.00,WeatherCatV1.21B27,2013-08-13 07:11:00,
2013-08-13 00:16:00,68.9,56.6,29.87,NNW,332,0.0,0.0,65,0.00,,,0.00,WeatherCatV1.21B27,2013-08-13 07:16:00,
2013-08-13 00:21:00,68.7,56.5,29.87,NNW,331,0.0,0.0,65,0.00,,,0.00,WeatherCatV1.21B27,2013-08-13 07:21:00,
2013-08-13 00:26:00,68.5,56.3,29.87,NNW,332,0.0,0.0,65,0.00,,,0.00,WeatherCatV1.21B27,2013-08-13 07:26:00,
2013-08-13 00:31:00,68.3,56.5,29.87,NNW,331,0.0,2.0,66,0.00,,,0.00,WeatherCatV1.21B27,2013-08-13 07:31:00,
2013-08-13 00:36:00,68.1,56.7,29.86,NNW,331,0.0,0.0,67,0.00,,,0.00,WeatherCatV1.21B27,2013-08-13 07:36:00,
2013-08-13 00:41:00,67.9,56.5,29.86,NNW,331,0.0,0.0,67,0.00,,,0.00,WeatherCatV1.21B27,2013-08-13 07:41:00,
2013-08-13 00:46:00,67.7,56.3,29.86,NNW,332,0.0,0.0,67,0.00,,,0.00,WeatherCatV1.21B27,2013-08-13 07:46:00,
2013-08-13 00:51:00,67.5,56.6,29.86,NNW,332,0.0,0.0,68,0.00,,,0.00,WeatherCatV1.21B27,2013-08-13 07:51:00,
2013-08-13 00:56:00,67.4,56.5,29.86,NNW,330,0.0,2.0,68,0.00,,,0.00,WeatherCatV1.21B27,2013-08-13 07:56:00,
2013-08-13 01:01:00,67.3,56.0,29.86,NNW,330,0.0,1.0,67,0.00,,,0.00,WeatherCatV1.21B27,2013-08-13 08:01:00,
2013-08-13 01:06:00,67.3,56.0,29.86,NNW,330,0.0,0.0,67,0.00,,,0.00,WeatherCatV1.21B27,2013-08-13 08:06:00,
2013-08-13 01:11:00,67.2,55.9,29.86,NNW,330,0.0,0.0,67,0.00,,,0.00,WeatherCatV1.21B27,2013-08-13 08:11:00,
2013-08-13 01:16:00,67.1,55.8,29.86,NNW,330,0.0,0.0,67,0.00,,,0.00,WeatherCatV1.21B27,2013-08-13 08:16:00,
2013-08-13 01:21:00,67.0,55.7,29.86,NNW,330,0.0,0.0,67,0.00,,,0.00,WeatherCatV1.21B27,2013-08-13 08:21:00,
2013-08-13 01:26:00,66.9,55.6,29.86,NNW,330,0.0,0.0,67,0.00,,,0.00,WeatherCatV1.21B27,2013-08-13 08:26:00,
2013-08-13 01:31:00,66.8,55.5,29.86,NNW,330,0.0,0.0,67,0.00,,,0.00,WeatherCatV1.21B27,2013-08-13 08:31:00,
2013-08-13 01:36:00,66.7,55.4,29.87,NNW,330,0.0,0.0,67,0.00,,,0.00,WeatherCatV1.21B27,2013-08-13 08:36:00,
2013-08-13 01:41:00,66.5,55.2,29.87,NNW,330,0.0,0.0,67,0.00,,,0.00,WeatherCatV1.21B27,2013-08-13 08:41:00,
2013-08-13 01:46:00,66.2,55.3,29.86,NNW,330,0.0,0.0,68,0.00,,,0.00,WeatherCatV1.21B27,2013-08-13 08:46:00,
2013-08-13 01:51:00,65.9,55.0,29.86,NNW,330,0.0,0.0,68,0.00,,,0.00,WeatherCatV1.21B27,2013-08-13 08:51:00,
2013-08-13 01:56:00,65.7,54.8,29.86,NNW,330,0.0,0.0,68,0.00,,,0.00,WeatherCatV1.21B27,2013-08-13 08:56:00,
2013-08-13 02:01:00,65.4,54.6,29.87,NNW,330,0.0,0.0,68,0.00,,,0.00,WeatherCatV1.21B27,2013-08-13 09:01:00,
2013-08-13 02:06:00,65.2,54.4,29.86,NNW,330,0.0,0.0,68,0.00,,,0.00,WeatherCatV1.21B27,2013-08-13 09:06:00,
2013-08-13 02:11:00,65.0,54.2,29.86,NNW,330,0.0,0.0,68,0.00,,,0.00,WeatherCatV1.21B27,2013-08-13 09:11:00,
2013-08-13 02:16:00,64.8,54.4,29.87,NNW,330,0.0,0.0,69,0.00,,,0.00,WeatherCatV1.21B27,2013-08-13 09:16:00,
2013-08-13 02:21:00,64.6,54.2,29.87,NNW,330,0.0,0.0,69,0.00,,,0.00,WeatherCatV1.21B27,2013-08-13 09:21:00,
2013-08-13 02:26:00,64.4,54.0,29.87,NNW,330,0.0,0.0,69,0.00,,,0.00,WeatherCatV1.21B27,2013-08-13 09:26:00,
2013-08-13 02:31:00,64.2,53.8,29.87,NNW,330,0.0,0.0,69,0.00,,,0.00,WeatherCatV1.21B27,2013-08-13 09:31:00,
2013-08-13 02:36:00,64.0,53.6,29.87,NNW,330,0.0,0.0,69,0.00,,,0.00,WeatherCatV1.21B27,2013-08-13 09:36:00,
2013-08-13 02:41:00,63.8,53.4,29.87,NNW,330,0.0,0.0,69,0.00,,,0.00,WeatherCatV1.21B27,2013-08-13 09:41:00,
2013-08-13 02:46:00,63.7,53.7,29.87,NNW,330,0.0,0.0,70,0.00,,,0.00,WeatherCatV1.21B27,2013-08-13 09:46:00,
2013-08-13 02:50:00,63.6,53.6,29.87,NNW,330,0.0,0.0,70,0.00,,,0.00,WeatherCatV1.21B27,2013-08-13 09:50:00,
2013-08-13 02:55:00,63.5,53.5,29.87,NNW,330,0.0,0.0,70,0.00,,,0.00,WeatherCatV1.21B27,2013-08-13 09:55:00,
2013-08-13 03:00:00,63.3,53.3,29.87,NNW,330,0.0,0.0,70,0.00,,,0.00,WeatherCatV1.21B27,2013-08-13 10:00:00,
2013-08-13 03:05:00,63.1,53.2,29.87,NNW,330,0.0,0.0,70,0.00,,,0.00,WeatherCatV1.21B27,2013-08-13 10:05:00,
2013-08-13 03:10:00,63.0,53.4,29.87,NNW,330,0.0,0.0,71,0.00,,,0.00,WeatherCatV1.21B27,2013-08-13 10:10:00,
2013-08-13 03:15:00,62.8,53.2,29.87,NNW,330,0.0,0.0,71,0.00,,,0.00,WeatherCatV1.21B27,2013-08-13 10:15:00,
2013-08-13 03:20:00,62.6,53.4,29.87,NNW,330,0.0,0.0,72,0.00,,,0.00,WeatherCatV1.21B27,2013-08-13 10:20:00,
2013-08-13 03:25:00,62.5,53.0,29.87,NNW,330,0.0,0.0,71,0.00,,,0.00,WeatherCatV1.21B27,2013-08-13 10:25:00,
2013-08-13 03:30:00,62.3,52.8,29.87,NNW,330,0.0,0.0,71,0.00,,,0.00,WeatherCatV1.21B27,2013-08-13 10:30:00,
2013-08-13 03:35:00,62.2,52.7,29.87,NNW,330,0.0,0.0,71,0.00,,,0.00,WeatherCatV1.21B27,2013-08-13 10:35:00,
2013-08-13 03:40:00,62.0,52.9,29.87,NNW,330,0.0,0.0,72,0.00,,,0.00,WeatherCatV1.21B27,2013-08-13 10:40:00,
2013-08-13 03:45:00,61.8,52.7,29.87,NNW,330,0.0,0.0,72,0.00,,,0.00,WeatherCatV1.21B27,2013-08-13 10:45:00,
2013-08-13 03:50:00,61.6,52.5,29.87,NNW,330,0.0,0.0,72,0.00,,,0.00,WeatherCatV1.21B27,2013-08-13 10:50:00,
2013-08-13 03:55:00,61.5,52.8,29.87,NNW,330,0.0,0.0,73,0.00,,,0.00,WeatherCatV1.21B27,2013-08-13 10:55:00,
2013-08-13 04:00:00,61.2,52.8,29.86,NNW,330,0.0,0.0,74,0.00,,,0.00,WeatherCatV1.21B27,2013-08-13 11:00:00,
2013-08-13 04:05:00,61.0,52.7,29.86,NNW,330,0.0,0.0,74,0.00,,,0.00,WeatherCatV1.21B27,2013-08-13 11:05:00,
2013-08-13 04:10:00,60.7,52.7,29.86,NNW,330,0.0,0.0,75,0.00,,,0.00,WeatherCatV1.21B27,2013-08-13 11:10:00,
2013-08-13 04:15:00,60.6,52.3,29.86,NNW,330,0.0,0.0,74,0.00,,,0.00,WeatherCatV1.21B27,2013-08-13 11:15:00,
2013-08-13 04:20:00,60.5,52.5,29.87,NNW,330,0.0,0.0,75,0.00,,,0.00,WeatherCatV1.21B27,2013-08-13 11:20:00,
2013-08-13 04:25:00,60.4,52.4,29.86,NNW,330,0.0,0.0,75,0.00,,,0.00,WeatherCatV1.21B27,2013-08-13 11:25:00,
2013-08-13 04:30:00,60.4,52.4,29.86,NNW,330,0.0,1.0,75,0.00,,,0.00,WeatherCatV1.21B27,2013-08-13 11:30:00,
2013-08-13 04:35:00,60.4,52.4,29.87,NNW,330,0.0,0.0,75,0.00,,,0.00,WeatherCatV1.21B27,2013-08-13 11:35:00,
2013-08-13 04:40:00,60.4,52.4,29.87,NNW,330,0.0,0.0,75,0.00,,,0.00,WeatherCatV1.21B27,2013-08-13 11:40:00,
2013-08-13 04:45:00,60.4,52.4,29.87,NNW,330,0.0,0.0,75,0.00,,,0.00,WeatherCatV1.21B27,2013-08-13 11:45:00,
2013-08-13 04:50:00,60.3,52.3,29.87,NNW,330,0.0,0.0,75,0.00,,,0.00,WeatherCatV1.21B27,2013-08-13 11:50:00,
2013-08-13 04:55:00,60.2,52.2,29.87,NNW,330,0.0,0.0,75,0.00,,,0.00,WeatherCatV1.21B27,2013-08-13 11:55:00,
2013-08-13 05:00:00,60.1,52.2,29.87,NNW,330,0.0,0.0,75,0.00,,,0.00,WeatherCatV1.21B27,2013-08-13 12:00:00,
2013-08-13 05:05:00,59.9,52.3,29.87,NNW,330,0.0,0.0,76,0.00,,,0.00,WeatherCatV1.21B27,2013-08-13 12:05:00,
2013-08-13 05:10:00,59.8,52.2,29.87,NNW,330,0.0,0.0,76,0.00,,,0.00,WeatherCatV1.21B27,2013-08-13 12:10:00,
2013-08-13 05:15:00,59.7,52.5,29.87,NNW,330,0.0,0.0,77,0.00,,,0.00,WeatherCatV1.21B27,2013-08-13 12:15:00,
2013-08-13 05:20:00,59.5,51.9,29.87,NNW,330,0.0,0.0,76,0.00,,,0.00,WeatherCatV1.21B27,2013-08-13 12:20:00,
2013-08-13 05:25:00,59.4,51.8,29.87,NNW,330,0.0,0.0,76,0.00,,,0.00,WeatherCatV1.21B27,2013-08-13 12:25:00,
2013-08-13 05:30:00,59.3,51.7,29.87,NNW,330,0.0,0.0,76,0.00,,,0.00,WeatherCatV1.21B27,2013-08-13 12:30:00,
2013-08-13 05:35:00,59.1,51.5,29.87,NNW,330,0.0,0.0,76,0.00,,,0.00,WeatherCatV1.21B27,2013-08-13 12:35:00,
2013-08-13 05:40:00,59.0,51.4,29.87,NNW,330,0.0,0.0,76,0.00,,,0.00,WeatherCatV1.21B27,2013-08-13 12:40:00,
2013-08-13 05:45:00,58.8,51.6,29.88,NNW,330,0.0,0.0,77,0.00,,,0.00,WeatherCatV1.21B27,2013-08-13 12:45:00,
2013-08-13 05:50:00,58.6,51.4,29.88,NNW,330,0.0,0.0,77,0.00,,,0.00,WeatherCatV1.21B27,2013-08-13 12:50:00,
2013-08-13 05:55:00,58.5,52.0,29.87,NNW,330,0.0,0.0,79,0.00,,,0.00,WeatherCatV1.21B27,2013-08-13 12:55:00,
2013-08-13 06:01:00,58.3,52.2,29.88,NNW,330,0.0,0.0,80,0.00,,,0.00,WeatherCatV1.21B27,2013-08-13 13:01:00,
2013-08-13 06:06:00,58.2,52.1,29.88,NNW,330,0.0,0.0,80,0.00,,,0.00,WeatherCatV1.21B27,2013-08-13 13:06:00,
2013-08-13 06:11:00,58.0,51.5,29.88,NNW,330,0.0,0.0,79,0.00,,,0.00,WeatherCatV1.21B27,2013-08-13 13:11:00,
2013-08-13 06:16:00,57.8,51.3,29.89,NNW,330,0.0,0.0,79,0.00,,,0.00,WeatherCatV1.21B27,2013-08-13 13:16:00,
2013-08-13 06:21:00,57.5,51.0,29.89,NNW,330,0.0,0.0,79,0.00,,,0.00,WeatherCatV1.21B27,2013-08-13 13:21:00,
2013-08-13 06:26:00,57.4,51.3,29.89,NNW,330,0.0,0.0,80,0.00,,,0.00,WeatherCatV1.21B27,2013-08-13 13:26:00,
2013-08-13 06:29:00,57.3,51.2,29.89,NNW,330,0.0,0.0,80,0.00,,,0.00,WeatherCatV1.21B27,2013-08-13 13:29:00,
2013-08-13 06:34:00,57.1,51.3,29.89,NNW,330,0.0,0.0,81,0.00,,,0.00,WeatherCatV1.21B27,2013-08-13 13:34:00,
2013-08-13 06:39:00,56.9,51.5,29.89,NNW,330,0.0,0.0,82,0.00,,,0.00,WeatherCatV1.21B27,2013-08-13 13:39:00,
2013-08-13 06:44:00,56.8,52.0,29.89,NNW,330,0.0,0.0,84,0.00,,,0.00,WeatherCatV1.21B27,2013-08-13 13:44:00,
2013-08-13 06:49:00,56.8,52.0,29.89,NNW,330,0.0,0.0,84,0.00,,,0.00,WeatherCatV1.21B27,2013-08-13 13:49:00,
2013-08-13 06:54:00,56.8,52.0,29.89,NNW,330,0.0,0.0,84,0.00,,,0.00,WeatherCatV1.21B27,2013-08-13 13:54:00,
2013-08-13 06:59:00,56.8,52.3,29.89,NNW,330,0.0,0.0,85,0.00,,,0.00,WeatherCatV1.21B27,2013-08-13 13:59:00,
2013-08-13 07:04:00,56.9,52.4,29.89,NNW,330,0.0,0.0,85,0.00,,,0.00,WeatherCatV1.21B27,2013-08-13 14:04:00,
2013-08-13 07:09:00,57.3,53.2,29.90,NNW,330,0.0,0.0,86,0.00,,,0.00,WeatherCatV1.21B27,2013-08-13 14:09:00,
2013-08-13 07:14:00,57.7,53.5,29.90,NNW,330,0.0,0.0,86,0.00,,,0.00,WeatherCatV1.21B27,2013-08-13 14:14:00,
2013-08-13 07:19:00,58.0,53.8,29.90,NNW,330,0.0,0.0,86,0.00,,,0.00,WeatherCatV1.21B27,2013-08-13 14:19:00,
2013-08-13 07:24:00,58.3,54.1,29.90,NNW,330,0.0,0.0,86,0.00,,,0.00,WeatherCatV1.21B27,2013-08-13 14:24:00,
2013-08-13 07:29:00,58.6,54.4,29.90,NNW,330,0.0,0.0,86,0.00,,,0.00,WeatherCatV1.21B27,2013-08-13 14:29:00,
2013-08-13 07:34:00,59.0,54.8,29.91,NNW,330,0.0,0.0,86,0.00,,,0.00,WeatherCatV1.21B27,2013-08-13 14:34:00,
2013-08-13 07:39:00,59.7,55.5,29.91,NNW,330,0.0,0.0,86,0.00,,,0.00,WeatherCatV1.21B27,2013-08-13 14:39:00,
2013-08-13 07:43:00,60.2,55.7,29.90,NNW,330,0.0,0.0,85,0.00,,,0.00,WeatherCatV1.21B27,2013-08-13 14:43:00,
2013-08-13 07:48:00,61.2,56.0,29.90,NNW,330,0.0,0.0,83,0.00,,,0.00,WeatherCatV1.21B27,2013-08-13 14:48:00,
2013-08-13 07:53:00,62.2,56.0,29.90,NNW,330,0.0,0.0,80,0.00,,,0.00,WeatherCatV1.21B27,2013-08-13 14:53:00,
2013-08-13 07:58:00,63.1,56.1,29.91,NNW,330,0.0,0.0,78,0.00,,,0.00,WeatherCatV1.21B27,2013-08-13 14:58:00,
2013-08-13 08:03:00,64.0,56.3,29.91,NNW,330,0.0,0.0,76,0.00,,,0.00,WeatherCatV1.21B27,2013-08-13 15:03:00,
2013-08-13 08:08:00,65.0,56.9,29.91,NNW,330,0.0,0.0,75,0.00,,,0.00,WeatherCatV1.21B27,2013-08-13 15:08:00,
2013-08-13 08:13:00,66.1,57.2,29.91,NNW,330,0.0,1.0,73,0.00,,,0.00,WeatherCatV1.21B27,2013-08-13 15:13:00,
2013-08-13 08:18:00,67.0,56.9,29.91,NNW,330,0.0,1.0,70,0.00,,,0.00,WeatherCatV1.21B27,2013-08-13 15:18:00,
2013-08-13 08:23:00,68.0,57.0,29.91,NNW,330,0.0,1.0,68,0.00,,,0.00,WeatherCatV1.21B27,2013-08-13 15:23:00,
2013-08-13 08:28:00,68.8,57.0,29.91,NNW,330,0.0,0.0,66,0.00,,,0.00,WeatherCatV1.21B27,2013-08-13 15:28:00,
2013-08-13 08:33:00,69.6,58.2,29.91,NNW,330,0.0,0.0,67,0.00,,,0.00,WeatherCatV1.21B27,2013-08-13 15:33:00,
2013-08-13 08:38:00,70.2,57.0,29.91,NNW,330,0.0,0.0,63,0.00,,,0.00,WeatherCatV1.21B27,2013-08-13 15:38:00,
2013-08-13 08:43:00,70.7,57.5,29.91,NNW,330,0.0,0.0,63,0.00,,,0.00,WeatherCatV1.21B27,2013-08-13 15:43:00,
2013-08-13 08:48:00,71.3,58.5,29.91,NNW,330,0.0,1.0,64,0.00,,,0.00,WeatherCatV1.21B27,2013-08-13 15:48:00,
2013-08-13 08:53:00,71.8,57.2,29.91,NNW,330,0.0,0.0,60,0.00,,,0.00,WeatherCatV1.21B27,2013-08-13 15:53:00,
2013-08-13 08:58:00,72.3,59.0,29.91,NNW,330,0.0,0.0,63,0.00,,,0.00,WeatherCatV1.21B27,2013-08-13 15:58:00,
2013-08-13 09:03:00,72.9,57.7,29.91,NNW,330,0.0,1.0,59,0.00,,,0.00,WeatherCatV1.21B27,2013-08-13 16:03:00,
2013-08-13 09:08:00,73.3,58.1,29.91,NNW,330,0.0,1.0,59,0.00,,,0.00,WeatherCatV1.21B27,2013-08-13 16:08:00,
2013-08-13 09:13:00,74.1,58.4,29.91,NNW,330,1.0,1.0,58,0.00,,,0.00,WeatherCatV1.21B27,2013-08-13 16:13:00,
2013-08-13 09:18:00,74.6,58.3,29.91,NNW,330,0.0,1.0,57,0.00,,,0.00,WeatherCatV1.21B27,2013-08-13 16:18:00,
2013-08-13 09:23:00,75.2,59.9,29.91,NNW,330,0.0,1.0,59,0.00,,,0.00,WeatherCatV1.21B27,2013-08-13 16:23:00,
2013-08-13 09:28:00,75.6,58.8,29.91,NNW,330,0.0,0.0,56,0.00,,,0.00,WeatherCatV1.21B27,2013-08-13 16:28:00,
2013-08-13 09:33:00,76.2,59.8,29.91,NNW,330,0.0,0.0,57,0.00,,,0.00,WeatherCatV1.21B27,2013-08-13 16:33:00,
2013-08-13 09:38:00,76.9,59.5,29.91,NNW,330,0.0,0.0,55,0.00,,,0.00,WeatherCatV1.21B27,2013-08-13 16:38:00,
2013-08-13 09:43:00,77.7,58.7,29.91,NNW,330,0.0,1.0,52,0.00,,,0.00,WeatherCatV1.21B27,2013-08-13 16:43:00,
2013-08-13 09:48:00,78.4,59.8,29.91,NNW,330,0.0,0.0,53,0.00,,,0.00,WeatherCatV1.21B27,2013-08-13 16:48:00,
2013-08-13 09:53:00,78.8,58.6,29.91,NW,320,0.0,0.0,50,0.00,,,0.00,WeatherCatV1.21B27,2013-08-13 16:53:00,
2013-08-13 09:58:00,79.3,59.0,29.91,NW,311,0.0,0.0,50,0.00,,,0.00,WeatherCatV1.21B27,2013-08-13 16:58:00,
2013-08-13 10:03:00,79.7,60.5,29.91,NW,313,0.0,1.0,52,0.00,,,0.00,WeatherCatV1.21B27,2013-08-13 17:03:00,
2013-08-13 10:08:00,79.6,59.8,29.91,NNW,348,0.0,1.0,51,0.00,,,0.00,WeatherCatV1.21B27,2013-08-13 17:08:00,
2013-08-13 10:13:00,79.7,58.8,29.91,SE,136,0.0,1.0,49,0.00,,,0.00,WeatherCatV1.21B27,2013-08-13 17:13:00,
2013-08-13 10:18:00,80.0,59.7,29.91,SE,134,0.0,0.0,50,0.00,,,0.00,WeatherCatV1.21B27,2013-08-13 17:18:00,
2013-08-13 10:23:00,80.3,59.4,29.91,SE,134,0.0,0.0,49,0.00,,,0.00,WeatherCatV1.21B27,2013-08-13 17:23:00,
2013-08-13 10:28:00,80.7,60.3,29.91,SE,128,0.0,1.0,50,0.00,,,0.00,WeatherCatV1.21B27,2013-08-13 17:28:00,
2013-08-13 10:33:00,80.9,61.0,29.91,SE,128,0.0,0.0,51,0.00,,,0.00,WeatherCatV1.21B27,2013-08-13 17:33:00,
2013-08-13 10:38:00,81.2,60.8,29.91,SE,128,0.0,0.0,50,0.00,,,0.00,WeatherCatV1.21B27,2013-08-13 17:38:00,
2013-08-13 10:43:00,82.1,63.2,29.91,SE,128,0.0,0.0,53,0.00,,,0.00,WeatherCatV1.21B27,2013-08-13 17:43:00,
2013-08-13 10:48:00,82.2,60.5,29.91,SSE,159,0.0,0.0,48,0.00,,,0.00,WeatherCatV1.21B27,2013-08-13 17:48:00,
2013-08-13 10:53:00,82.3,60.0,29.91,SSE,159,0.0,1.0,47,0.00,,,0.00,WeatherCatV1.21B27,2013-08-13 17:53:00,
2013-08-13 10:58:00,82.8,61.7,29.90,SSE,159,0.0,1.0,49,0.00,,,0.00,WeatherCatV1.21B27,2013-08-13 17:58:00,
2013-08-13 11:03:00,83.3,60.9,29.90,SSE,159,0.0,0.0,47,0.00,,,0.00,WeatherCatV1.21B27,2013-08-13 18:03:00,
2013-08-13 11:08:00,83.9,61.5,29.90,SSE,159,0.0,0.0,47,0.00,,,0.00,WeatherCatV1.21B27,2013-08-13 18:08:00,
2013-08-13 11:13:00,84.5,62.0,29.90,SSE,160,0.0,2.0,47,0.00,,,0.00,WeatherCatV1.21B27,2013-08-13 18:13:00,
2013-08-13 11:18:00,84.9,60.5,29.90,SSE,160,0.0,3.0,44,0.00,,,0.00,WeatherCatV1.21B27,2013-08-13 18:18:00,
2013-08-13 11:23:00,84.9,59.9,29.90,SSE,165,0.0,0.0,43,0.00,,,0.00,WeatherCatV1.21B27,2013-08-13 18:23:00,
2013-08-13 11:28:00,84.7,61.6,29.89,SSE,164,0.0,1.0,46,0.00,,,0.00,WeatherCatV1.21B27,2013-08-13 18:28:00,
2013-08-13 11:33:00,85.0,62.5,29.89,South,179,3.0,4.0,47,0.00,,,0.00,WeatherCatV1.21B27,2013-08-13 18:33:00,
2013-08-13 11:38:00,85.0,63.7,29.89,North,0,0.0,1.0,49,0.00,,,0.00,WeatherCatV1.21B27,2013-08-13 18:38:00,
2013-08-13 11:43:00,85.5,61.7,29.89,North,5,0.0,2.0,45,0.00,,,0.00,WeatherCatV1.21B27,2013-08-13 18:43:00,
2013-08-13 11:48:00,85.9,65.1,29.89,NW,322,0.0,0.0,50,0.00,,,0.00,WeatherCatV1.21B27,2013-08-13 18:48:00,
2013-08-13 11:53:00,86.0,60.2,29.89,North,355,1.0,4.0,42,0.00,,,0.00,WeatherCatV1.21B27,2013-08-13 18:53:00,
2013-08-13 11:58:00,85.8,60.0,29.89,NNW,336,0.0,4.0,42,0.00,,,0.00,WeatherCatV1.21B27,2013-08-13 18:58:00,
2013-08-13 12:03:00,85.9,60.8,29.89,NW,325,1.0,1.0,43,0.00,,,0.00,WeatherCatV1.21B27,2013-08-13 19:03:00,
2013-08-13 12:08:00,86.1,61.0,29.89,WSW,250,3.0,3.0,43,0.00,,,0.00,WeatherCatV1.21B27,2013-08-13 19:08:00,
2013-08-13 12:13:00,86.3,57.7,29.89,WNW,296,3.0,3.0,38,0.00,,,0.00,WeatherCatV1.21B27,2013-08-13 19:13:00,
2013-08-13 12:18:00,86.5,60.0,29.88,NW,308,0.0,4.0,41,0.00,,,0.00,WeatherCatV1.21B27,2013-08-13 19:18:00,
2013-08-13 12:23:00,86.5,59.3,29.88,NW,309,1.0,1.0,40,0.00,,,0.00,WeatherCatV1.21B27,2013-08-13 19:23:00,
2013-08-13 12:28:00,86.9,63.0,29.88,NNW,330,1.0,1.0,45,0.00,,,0.00,WeatherCatV1.21B27,2013-08-13 19:28:00,
2013-08-13 12:33:00,86.9,61.0,29.88,NNW,329,0.0,1.0,42,0.00,,,0.00,WeatherCatV1.21B27,2013-08-13 19:33:00,
2013-08-13 12:38:00,87.3,62.7,29.88,NW,325,0.0,0.0,44,0.00,,,0.00,WeatherCatV1.21B27,2013-08-13 19:38:00,
2013-08-13 12:43:00,87.6,61.6,29.88,NNW,334,0.0,0.0,42,0.00,,,0.00,WeatherCatV1.21B27,2013-08-13 19:43:00,
2013-08-13 12:48:00,87.8,61.8,29.88,NNW,338,0.0,4.0,42,0.00,,,0.00,WeatherCatV1.21B27,2013-08-13 19:48:00,
2013-08-13 12:53:00,88.0,62.0,29.88,NNW,327,0.0,4.0,42,0.00,,,0.00,WeatherCatV1.21B27,2013-08-13 19:53:00,
2013-08-13 12:58:00,88.1,61.4,29.88,NNW,330,0.0,1.0,41,0.00,,,0.00,WeatherCatV1.21B27,2013-08-13 19:58:00,
2013-08-13 13:03:00,88.5,62.4,29.88,NNW,328,1.0,1.0,42,0.00,,,0.00,WeatherCatV1.21B27,2013-08-13 20:03:00,
2013-08-13 13:08:00,88.7,62.6,29.87,NNW,331,3.0,4.0,42,0.00,,,0.00,WeatherCatV1.21B27,2013-08-13 20:08:00,
2013-08-13 13:13:00,89.0,62.9,29.87,NNW,337,3.0,3.0,42,0.00,,,0.00,WeatherCatV1.21B27,2013-08-13 20:13:00,
2013-08-13 13:18:00,89.5,61.9,29.87,NNW,337,0.0,1.0,40,0.00,,,0.00,WeatherCatV1.21B27,2013-08-13 20:18:00,
2013-08-13 13:23:00,89.9,63.0,29.87,NW,324,4.0,4.0,41,0.00,,,0.00,WeatherCatV1.21B27,2013-08-13 20:23:00,
2013-08-13 13:28:00,90.1,61.8,29.87,NW,318,0.0,1.0,39,0.00,,,0.00,WeatherCatV1.21B27,2013-08-13 20:28:00,
2013-08-13 13:33:00,90.4,62.0,29.87,NNW,340,5.0,5.0,39,0.00,,,0.00,WeatherCatV1.21B27,2013-08-13 20:33:00,
2013-08-13 13:38:00,90.1,61.8,29.87,NNW,331,0.0,4.0,39,0.00,,,0.00,WeatherCatV1.21B27,2013-08-13 20:38:00,
2013-08-13 13:43:00,90.3,64.7,29.86,NNW,329,0.0,1.0,43,0.00,,,0.00,WeatherCatV1.21B27,2013-08-13 20:43:00,
2013-08-13 13:48:00,90.9,63.9,29.86,NNW,327,0.0,3.0,41,0.00,,,0.00,WeatherCatV1.21B27,2013-08-13 20:48:00,
2013-08-13 13:53:00,91.5,61.5,29.86,NNW,328,0.0,1.0,37,0.00,,,0.00,WeatherCatV1.21B27,2013-08-13 20:53:00,
2013-08-13 13:58:00,91.7,62.4,29.85,NNW,343,0.0,4.0,38,0.00,,,0.00,WeatherCatV1.21B27,2013-08-13 20:58:00,
2013-08-13 14:03:00,91.7,63.9,29.85,NW,325,0.0,6.0,40,0.00,,,0.00,WeatherCatV1.21B27,2013-08-13 21:03:00,
2013-08-13 14:08:00,92.0,62.0,29.85,NW,326,0.0,4.0,37,0.00,,,0.00,WeatherCatV1.21B27,2013-08-13 21:08:00,
2013-08-13 14:13:00,92.5,63.1,29.85,NNW,331,1.0,4.0,38,0.00,,,0.00,WeatherCatV1.21B27,2013-08-13 21:13:00,
2013-08-13 14:18:00,92.5,62.4,29.85,NW,319,0.0,1.0,37,0.00,,,0.00,WeatherCatV1.21B27,2013-08-13 21:18:00,
2013-08-13 14:23:00,93.1,63.7,29.85,NW,318,0.0,1.0,38,0.00,,,0.00,WeatherCatV1.21B27,2013-08-13 21:23:00,
2013-08-13 14:28:00,93.2,60.6,29.85,NNW,333,0.0,5.0,34,0.00,,,0.00,WeatherCatV1.21B27,2013-08-13 21:28:00,
2013-08-13 14:33:00,93.2,62.2,29.85,NNW,334,0.0,2.0,36,0.00,,,0.00,WeatherCatV1.21B27,2013-08-13 21:33:00,
2013-08-13 14:38:00,93.9,62.0,29.84,WNW,284,0.0,3.0,35,0.00,,,0.00,WeatherCatV1.21B27,2013-08-13 21:38:00,
2013-08-13 14:43:00,94.4,61.7,29.84,NNW,333,3.0,3.0,34,0.00,,,0.00,WeatherCatV1.21B27,2013-08-13 21:43:00,
2013-08-13 14:48:00,94.7,64.3,29.84,NNW,327,0.0,1.0,37,0.00,,,0.00,WeatherCatV1.21B27,2013-08-13 21:48:00,
2013-08-13 14:53:00,95.0,63.0,29.84,NW,304,0.0,4.0,35,0.00,,,0.00,WeatherCatV1.21B27,2013-08-13 21:53:00,
2013-08-13 14:58:00,95.2,64.0,29.83,NW,325,0.0,3.0,36,0.00,,,0.00,WeatherCatV1.21B27,2013-08-13 21:58:00,
2013-08-13 15:03:00,95.3,64.1,29.83,NNW,334,3.0,3.0,36,0.00,,,0.00,WeatherCatV1.21B27,2013-08-13 22:03:00,
2013-08-13 15:08:00,94.9,60.4,29.83,NNW,344,0.0,5.0,32,0.00,,,0.00,WeatherCatV1.21B27,2013-08-13 22:08:00,
2013-08-13 15:13:00,94.9,63.7,29.83,NNW,341,1.0,1.0,36,0.00,,,0.00,WeatherCatV1.21B27,2013-08-13 22:13:00,
2013-08-13 15:18:00,94.9,62.1,29.83,NNW,334,0.0,0.0,34,0.00,,,0.00,WeatherCatV1.21B27,2013-08-13 22:18:00,
2013-08-13 15:23:00,95.1,63.1,29.83,NNW,334,1.0,1.0,35,0.00,,,0.00,WeatherCatV1.21B27,2013-08-13 22:23:00,
2013-08-13 15:28:00,95.4,63.3,29.82,NNW,330,0.0,1.0,35,0.00,,,0.00,WeatherCatV1.21B27,2013-08-13 22:28:00,
2013-08-13 15:33:00,95.6,62.7,29.82,NNW,329,0.0,0.0,34,0.00,,,0.00,WeatherCatV1.21B27,2013-08-13 22:33:00,
2013-08-13 15:38:00,96.1,63.1,29.82,NNW,329,0.0,1.0,34,0.00,,,0.00,WeatherCatV1.21B27,2013-08-13 22:38:00,
2013-08-13 15:43:00,96.2,60.6,29.81,NNW,348,0.0,4.0,31,0.00,,,0.00,WeatherCatV1.21B27,2013-08-13 22:43:00,
2013-08-13 15:48:00,95.8,58.4,29.81,NNW,344,1.0,3.0,29,0.00,,,0.00,WeatherCatV1.21B27,2013-08-13 22:48:00,
2013-08-13 15:53:00,96.1,60.5,29.81,SW,219,6.0,6.0,31,0.00,,,0.00,WeatherCatV1.21B27,2013-08-13 22:53:00,
2013-08-13 15:58:00,96.4,60.8,29.81,WSW,246,0.0,1.0,31,0.00,,,0.00,WeatherCatV1.21B27,2013-08-13 22:58:00,
2013-08-13 16:03:00,96.8,62.0,29.81,WSW,242,1.0,3.0,32,0.00,,,0.00,WeatherCatV1.21B27,2013-08-13 23:03:00,
2013-08-13 16:08:00,97.1,62.3,29.81,WNW,286,0.0,0.0,32,0.00,,,0.00,WeatherCatV1.21B27,2013-08-13 23:08:00,
2013-08-13 16:13:00,97.4,60.7,29.81,WNW,286,0.0,1.0,30,0.00,,,0.00,WeatherCatV1.21B27,2013-08-13 23:13:00,
2013-08-13 16:18:00,98.0,63.9,29.80,WNW,288,1.0,1.0,33,0.00,,,0.00,WeatherCatV1.21B27,2013-08-13 23:18:00,
2013-08-13 16:23:00,98.2,61.4,29.80,WNW,285,0.0,1.0,30,0.00,,,0.00,WeatherCatV1.21B27,2013-08-13 23:23:00,
2013-08-13 16:28:00,98.1,58.3,29.80,NNW,335,2.0,7.0,27,0.00,,,0.00,WeatherCatV1.21B27,2013-08-13 23:28:00,
2013-08-13 16:33:00,97.7,59.0,29.80,NNW,331,0.0,0.0,28,0.00,,,0.00,WeatherCatV1.21B27,2013-08-13 23:33:00,
2013-08-13 16:38:00,97.8,59.1,29.80,NNW,331,0.0,0.0,28,0.00,,,0.00,WeatherCatV1.21B27,2013-08-13 23:38:00,
2013-08-13 16:43:00,97.9,60.2,29.80,NNW,329,0.0,1.0,29,0.00,,,0.00,WeatherCatV1.21B27,2013-08-13 23:43:00,
2013-08-13 16:48:00,98.1,59.4,29.80,NNW,333,0.0,5.0,28,0.00,,,0.00,WeatherCatV1.21B27,2013-08-13 23:48:00,
2013-08-13 16:53:00,98.1,60.3,29.80,NNW,331,1.0,1.0,29,0.00,,,0.00,WeatherCatV1.21B27,2013-08-13 23:53:00,
2013-08-13 16:58:00,98.0,58.3,29.80,NNW,345,0.0,5.0,27,0.00,,,0.00,WeatherCatV1.21B27,2013-08-13 23:58:00,
2013-08-13 17:03:00,97.9,59.2,29.79,NNW,334,1.0,4.0,28,0.00,,,0.00,WeatherCatV1.21B27,2013-08-14 00:03:00,
2013-08-13 17:08:00,97.7,60.0,29.79,NW,325,0.0,1.0,29,0.00,,,0.00,WeatherCatV1.21B27,2013-08-14 00:08:00,
2013-08-13 17:13:00,97.5,58.8,29.80,NNW,330,0.0,1.0,28,0.00,,,0.00,WeatherCatV1.21B27,2013-08-14 00:13:00,
2013-08-13 17:18:00,97.4,60.7,29.79,NNW,328,0.0,1.0,30,0.00,,,0.00,WeatherCatV1.21B27,2013-08-14 00:18:00,
2013-08-13 17:23:00,97.5,59.8,29.79,NW,322,0.0,7.0,29,0.00,,,0.00,WeatherCatV1.21B27,2013-08-14 00:23:00,
2013-08-13 17:28:00,97.5,57.8,29.79,NW,323,0.0,4.0,27,0.00,,,0.00,WeatherCatV1.21B27,2013-08-14 00:28:00,
2013-08-13 17:33:00,97.6,57.9,29.79,NW,324,0.0,2.0,27,0.00,,,0.00,WeatherCatV1.21B27,2013-08-14 00:33:00,
2013-08-13 17:38:00,97.7,60.0,29.79,NW,324,0.0,2.0,29,0.00,,,0.00,WeatherCatV1.21B27,2013-08-14 00:38:00,
2013-08-13 17:43:00,97.9,59.2,29.79,NW,324,1.0,2.0,28,0.00,,,0.00,WeatherCatV1.21B27,2013-08-14 00:43:00,
2013-08-13 17:48:00,98.0,61.2,29.79,NW,324,0.0,1.0,30,0.00,,,0.00,WeatherCatV1.21B27,2013-08-14 00:48:00,
2013-08-13 17:53:00,98.0,60.3,29.79,NW,323,0.0,2.0,29,0.00,,,0.00,WeatherCatV1.21B27,2013-08-14 00:53:00,
2013-08-13 17:58:00,97.9,59.2,29.79,NW,322,0.0,1.0,28,0.00,,,0.00,WeatherCatV1.21B27,2013-08-14 00:58:00,
2013-08-13 18:03:00,97.8,59.1,29.79,NW,321,0.0,2.0,28,0.00,,,0.00,WeatherCatV1.21B27,2013-08-14 01:03:00,
2013-08-13 18:08:00,97.7,58.0,29.79,WNW,303,0.0,3.0,27,0.00,,,0.00,WeatherCatV1.21B27,2013-08-14 01:08:00,
2013-08-13 18:13:00,97.5,57.8,29.79,West,280,0.0,1.0,27,0.00,,,0.00,WeatherCatV1.21B27,2013-08-14 01:13:00,
2013-08-13 18:18:00,97.1,58.5,29.79,West,272,0.0,1.0,28,0.00,,,0.00,WeatherCatV1.21B27,2013-08-14 01:18:00,
2013-08-13 18:23:00,96.8,58.3,29.78,West,272,0.0,0.0,28,0.00,,,0.00,WeatherCatV1.21B27,2013-08-14 01:23:00,
2013-08-13 18:28:00,96.6,59.1,29.78,West,272,0.0,0.0,29,0.00,,,0.00,WeatherCatV1.21B27,2013-08-14 01:28:00,
2013-08-13 18:33:00,96.5,59.9,29.78,West,272,0.0,1.0,30,0.00,,,0.00,WeatherCatV1.21B27,2013-08-14 01:33:00,
2013-08-13 18:38:00,96.2,59.7,29.78,West,272,0.0,1.0,30,0.00,,,0.00,WeatherCatV1.21B27,2013-08-14 01:38:00,
2013-08-13 18:43:00,96.0,60.4,29.78,West,273,0.0,0.0,31,0.00,,,0.00,WeatherCatV1.21B27,2013-08-14 01:43:00,
2013-08-13 18:48:00,95.5,60.0,29.78,West,273,0.0,0.0,31,0.00,,,0.00,WeatherCatV1.21B27,2013-08-14 01:48:00,
2013-08-13 18:53:00,94.9,60.4,29.78,West,273,0.0,0.0,32,0.00,,,0.00,WeatherCatV1.21B27,2013-08-14 01:53:00,
2013-08-13 18:58:00,94.6,61.0,29.78,West,273,0.0,0.0,33,0.00,,,0.00,WeatherCatV1.21B27,2013-08-14 01:58:00,
2013-08-13 19:03:00,94.0,61.3,29.78,West,273,0.0,0.0,34,0.00,,,0.00,WeatherCatV1.21B27,2013-08-14 02:03:00,
2013-08-13 19:08:00,93.4,60.8,29.78,West,273,0.0,0.0,34,0.00,,,0.00,WeatherCatV1.21B27,2013-08-14 02:08:00,
2013-08-13 19:13:00,92.9,61.2,29.79,West,273,0.0,0.0,35,0.00,,,0.00,WeatherCatV1.21B27,2013-08-14 02:13:00,
2013-08-13 19:18:00,92.6,61.7,29.79,West,273,0.0,0.0,36,0.00,,,0.00,WeatherCatV1.21B27,2013-08-14 02:18:00,
2013-08-13 19:23:00,91.8,61.8,29.79,West,273,0.0,0.0,37,0.00,,,0.00,WeatherCatV1.21B27,2013-08-14 02:23:00,
2013-08-13 19:28:00,90.8,61.6,29.79,West,273,0.0,1.0,38,0.00,,,0.00,WeatherCatV1.21B27,2013-08-14 02:28:00,
2013-08-13 19:33:00,90.0,61.7,29.79,West,273,0.0,0.0,39,0.00,,,0.00,WeatherCatV1.21B27,2013-08-14 02:33:00,
2013-08-13 19:38:00,89.2,61.7,29.79,West,273,0.0,0.0,40,0.00,,,0.00,WeatherCatV1.21B27,2013-08-14 02:38:00,
2013-08-13 19:43:00,88.4,61.7,29.79,West,273,0.0,0.0,41,0.00,,,0.00,WeatherCatV1.21B27,2013-08-14 02:43:00,
2013-08-13 19:48:00,87.5,60.9,29.79,West,273,0.0,0.0,41,0.00,,,0.00,WeatherCatV1.21B27,2013-08-14 02:48:00,
2013-08-13 19:53:00,86.8,60.9,29.79,West,273,0.0,0.0,42,0.00,,,0.00,WeatherCatV1.21B27,2013-08-14 02:53:00,
2013-08-13 19:58:00,85.9,60.1,29.80,West,273,0.0,0.0,42,0.00,,,0.00,WeatherCatV1.21B27,2013-08-14 02:58:00,
2013-08-13 20:03:00,85.0,60.6,29.80,West,273,0.0,0.0,44,0.00,,,0.00,WeatherCatV1.21B27,2013-08-14 03:03:00,
2013-08-13 20:08:00,84.2,61.1,29.80,West,273,0.0,0.0,46,0.00,,,0.00,WeatherCatV1.21B27,2013-08-14 03:08:00,
2013-08-13 20:13:00,83.4,61.0,29.80,West,273,0.0,0.0,47,0.00,,,0.00,WeatherCatV1.21B27,2013-08-14 03:13:00,
2013-08-13 20:18:00,82.9,61.2,29.80,West,273,0.0,0.0,48,0.00,,,0.00,WeatherCatV1.21B27,2013-08-14 03:18:00,
2013-08-13 20:23:00,82.3,61.8,29.80,West,273,0.0,0.0,50,0.00,,,0.00,WeatherCatV1.21B27,2013-08-14 03:23:00,
2013-08-13 20:28:00,81.7,61.2,29.81,West,273,0.0,0.0,50,0.00,,,0.00,WeatherCatV1.21B27,2013-08-14 03:28:00,
2013-08-13 20:33:00,80.9,61.0,29.81,West,273,0.0,0.0,51,0.00,,,0.00,WeatherCatV1.21B27,2013-08-14 03:33:00,
2013-08-13 20:38:00,80.3,61.0,29.81,West,273,0.0,0.0,52,0.00,,,0.00,WeatherCatV1.21B27,2013-08-14 03:38:00,
2013-08-13 20:43:00,79.9,60.7,29.81,West,273,0.0,0.0,52,0.00,,,0.00,WeatherCatV1.21B27,2013-08-14 03:43:00,
2013-08-13 20:48:00,79.4,60.8,29.81,West,273,0.0,0.0,53,0.00,,,0.00,WeatherCatV1.21B27,2013-08-14 03:48:00,
2013-08-13 20:53:00,78.9,60.8,29.82,West,273,0.0,0.0,54,0.00,,,0.00,WeatherCatV1.21B27,2013-08-14 03:53:00,
2013-08-13 20:58:00,78.5,62.5,29.82,West,273,0.0,0.0,58,0.00,,,0.00,WeatherCatV1.21B27,2013-08-14 03:58:00,
2013-08-13 21:01:00,78.3,61.8,29.81,West,273,0.0,0.0,57,0.00,,,0.00,WeatherCatV1.21B27,2013-08-14 04:01:00,
2013-08-13 21:07:00,77.6,60.6,29.82,West,273,0.0,0.0,56,0.00,,,0.00,WeatherCatV1.21B27,2013-08-14 04:07:00,
2013-08-13 21:10:00,77.3,60.9,29.82,West,273,0.0,0.0,57,0.00,,,0.00,WeatherCatV1.21B27,2013-08-14 04:10:00,
2013-08-13 21:15:00,76.7,60.3,29.82,West,273,0.0,0.0,57,0.00,,,0.00,WeatherCatV1.21B27,2013-08-14 04:15:00,
2013-08-13 21:20:00,76.3,60.4,29.82,West,273,0.0,1.0,58,0.00,,,0.00,WeatherCatV1.21B27,2013-08-14 04:20:00,
2013-08-13 21:25:00,76.0,60.6,29.82,West,273,0.0,0.0,59,0.00,,,0.00,WeatherCatV1.21B27,2013-08-14 04:25:00,
2013-08-13 21:30:00,75.8,60.4,29.82,West,273,0.0,0.0,59,0.00,,,0.00,WeatherCatV1.21B27,2013-08-14 04:30:00,
2013-08-13 21:35:00,75.6,60.2,29.82,West,273,0.0,0.0,59,0.00,,,0.00,WeatherCatV1.21B27,2013-08-14 04:35:00,
2013-08-13 21:40:00,75.4,60.1,29.82,West,273,0.0,0.0,59,0.00,,,0.00,WeatherCatV1.21B27,2013-08-14 04:40:00,
2013-08-13 21:45:00,75.2,59.9,29.82,West,273,0.0,0.0,59,0.00,,,0.00,WeatherCatV1.21B27,2013-08-14 04:45:00,
2013-08-13 21:50:00,75.0,59.7,29.82,West,273,0.0,0.0,59,0.00,,,0.00,WeatherCatV1.21B27,2013-08-14 04:50:00,
2013-08-13 21:55:00,74.8,60.0,29.83,West,273,0.0,0.0,60,0.00,,,0.00,WeatherCatV1.21B27,2013-08-14 04:55:00,
2013-08-13 22:00:00,74.8,60.0,29.83,West,273,0.0,0.0,60,0.00,,,0.00,WeatherCatV1.21B27,2013-08-14 05:00:00,
2013-08-13 22:05:00,74.7,59.4,29.83,West,273,0.0,0.0,59,0.00,,,0.00,WeatherCatV1.21B27,2013-08-14 05:05:00,
2013-08-13 22:10:00,74.7,59.9,29.83,West,279,0.0,2.0,60,0.00,,,0.00,WeatherCatV1.21B27,2013-08-14 05:10:00,
2013-08-13 22:15:00,74.7,59.9,29.83,West,279,0.0,0.0,60,0.00,,,0.00,WeatherCatV1.21B27,2013-08-14 05:15:00,
2013-08-13 22:20:00,74.6,60.2,29.83,West,279,0.0,0.0,61,0.00,,,0.00,WeatherCatV1.21B27,2013-08-14 05:20:00,
2013-08-13 22:25:00,74.4,60.5,29.83,West,279,0.0,0.0,62,0.00,,,0.00,WeatherCatV1.21B27,2013-08-14 05:25:00,
2013-08-13 22:30:00,74.1,60.2,29.83,West,279,0.0,0.0,62,0.00,,,0.00,WeatherCatV1.21B27,2013-08-14 05:30:00,
2013-08-13 22:35:00,73.9,60.5,29.83,West,279,0.0,0.0,63,0.00,,,0.00,WeatherCatV1.21B27,2013-08-14 05:35:00,
2013-08-13 22:40:00,73.5,60.1,29.83,West,279,0.0,0.0,63,0.00,,,0.00,WeatherCatV1.21B27,2013-08-14 05:40:00,
2013-08-13 22:45:00,73.1,60.2,29.83,West,279,0.0,0.0,64,0.00,,,0.00,WeatherCatV1.21B27,2013-08-14 05:45:00,
2013-08-13 22:50:00,72.8,60.3,29.83,West,279,0.0,0.0,65,0.00,,,0.00,WeatherCatV1.21B27,2013-08-14 05:50:00,
2013-08-13 22:55:00,72.5,59.6,29.83,West,279,0.0,0.0,64,0.00,,,0.00,WeatherCatV1.21B27,2013-08-14 05:55:00,
2013-08-13 23:00:00,72.1,59.7,29.84,West,279,0.0,0.0,65,0.00,,,0.00,WeatherCatV1.21B27,2013-08-14 06:00:00,
2013-08-13 23:05:00,71.6,59.2,29.84,West,279,0.0,0.0,65,0.00,,,0.00,WeatherCatV1.21B27,2013-08-14 06:05:00,
2013-08-13 23:10:00,71.3,58.9,29.84,West,279,0.0,0.0,65,0.00,,,0.00,WeatherCatV1.21B27,2013-08-14 06:10:00,
2013-08-13 23:15:00,70.9,59.0,29.84,West,279,0.0,0.0,66,0.00,,,0.00,WeatherCatV1.21B27,2013-08-14 06:15:00,
2013-08-13 23:20:00,70.7,58.8,29.84,West,279,0.0,0.0,66,0.00,,,0.00,WeatherCatV1.21B27,2013-08-14 06:20:00,
2013-08-13 23:25:00,70.2,59.5,29.84,West,279,0.0,0.0,69,0.00,,,0.00,WeatherCatV1.21B27,2013-08-14 06:25:00,
2013-08-13 23:30:00,69.8,59.2,29.84,West,279,0.0,0.0,69,0.00,,,0.00,WeatherCatV1.21B27,2013-08-14 06:30:00,
2013-08-13 23:35:00,69.7,59.1,29.84,West,279,0.0,0.0,69,0.00,,,0.00,WeatherCatV1.21B27,2013-08-14 06:35:00,
2013-08-13 23:40:00,69.6,59.0,29.84,West,279,0.0,0.0,69,0.00,,,0.00,WeatherCatV1.21B27,2013-08-14 06:40:00,
2013-08-13 23:45:00,69.4,59.2,29.84,West,279,0.0,0.0,70,0.00,,,0.00,WeatherCatV1.21B27,2013-08-14 06:45:00,
2013-08-13 23:50:00,69.2,59.0,29.84,West,278,0.0,0.0,70,0.00,,,0.00,WeatherCatV1.21B27,2013-08-14 06:50:00,
2013-08-13 23:55:00,69.2,59.0,29.84,West,278,0.0,0.0,70,0.00,,,0.00,WeatherCatV1.21B27,2013-08-14 06:55:00,